GW6448 Weather Reports


time (UTC)temp
C
wind
direction
speed
KPH
gust
KPH
rain 1hr
cm
rain 24hr
cm
rain mn
cm
humidity
%
barometer
mb
20260507174539 11 88 4.8 16.1 0.00 0.18 0.13 63 1011.8
20260507174017 11 108 9.7 16.1 0.00 0.18 0.13 63 1011.8
20260507173509 11 93 6.4 9.7 0.00 0.18 0.13 66 1012.1
20260507173025 11 103 4.8 11.3 0.00 0.18 0.13 66 1012.1
20260507172511 11 74 4.8 11.3 0.00 0.18 0.13 66 1012.0
20260507172010 11 85 6.4 14.5 0.00 0.18 0.13 65 1012.0
20260507171528 11 73 6.4 14.5 0.00 0.18 0.13 67 1011.9
20260507171010 11 112 8.0 12.9 0.00 0.18 0.13 65 1012.1
20260507170503 11 121 4.8 11.3 0.00 0.18 0.13 65 1012.2
20260507170026 11 128 4.8 11.3 0.00 0.18 0.13 68 1012.2
20260507165513 11 142 3.2 9.7 0.00 0.18 0.13 70 1012.4
20260507165007 11 108 3.2 14.5 0.00 0.18 0.13 69 1012.6
20260507164525 11 70 6.4 14.5 0.00 0.18 0.13 67 1012.5
20260507164009 11 36 8.0 14.5 0.00 0.18 0.13 64 1012.5
20260507163505 12 35 6.4 12.9 0.00 0.18 0.13 63 1012.8
20260507163023 12 184 8.0 12.9 0.00 0.18 0.13 57 1012.5
20260507162511 12 78 8.0 12.9 0.00 0.18 0.13 58 1012.7
20260507162008 12 90 6.4 11.3 0.00 0.18 0.13 59 1013.0
20260507161506 12 53 6.4 11.3 0.00 0.18 0.13 56 1013.3
20260507161005 12 102 3.2 12.9 0.00 0.18 0.13 57 1013.6
20260507160508 12 84 4.8 17.7 0.00 0.18 0.13 57 1013.2
20260507160007 12 49 8.0 16.1 0.00 0.18 0.13 56 1013.2
20260507155504 12 113 8.0 16.1 0.00 0.18 0.13 57 1013.0
20260507155010 12 130 6.4 22.5 0.00 0.18 0.13 58 1013.0
20260507154504 12 76 12.9 22.5 0.00 0.18 0.13 56 1012.8
20260507154009 12 138 11.3 17.7 0.00 0.18 0.13 58 1012.9
20260507153511 12 73 8.0 17.7 0.00 0.18 0.13 60 1013.1
20260507153007 12 80 11.3 20.9 0.00 0.18 0.13 58 1013.2
20260507152506 12 82 11.3 20.9 0.00 0.18 0.13 1013.0
20260507152001 12 46 9.7 20.9 0.00 0.18 0.13 60 1013.2
20260507151508 12 90 11.3 20.9 0.00 0.18 0.13 60 1013.1
20260507151006 12 80 4.8 16.1 0.00 0.18 0.13 60 1013.2
20260507150503 12 50 11.3 16.1 0.00 0.18 0.13 60 1013.4
20260507150011 12 36 6.4 20.9 0.00 0.18 0.13 62 1013.2
20260507145512 12 50 8.0 22.5 0.00 0.18 0.13 61 1013.1
20260507145006 12 64 12.9 22.5 0.00 0.18 0.13 61 1013.2
20260507144510 12 56 9.7 22.5 0.00 0.18 0.13 1013.2
20260507144007 12 55 14.5 27.4 0.00 0.20 0.13 64 1013.4
20260507143504 12 49 14.5 27.4 0.00 0.20 0.13 64 1013.4
20260507143012 12 68 16.1 27.4 0.00 0.25 0.13 62 1013.5
20260507142509 12 67 14.5 24.1 0.00 0.25 0.13 63 1013.5
20260507142004 12 150 8.0 17.7 0.00 0.25 0.13 66 1013.6
20260507141512 12 88 8.0 19.3 0.00 0.25 0.13 68 1013.6
20260507141010 12 39 8.0 19.3 0.00 0.25 0.13 67 1013.8
20260507140503 12 86 6.4 17.7 0.00 0.28 0.13 67 1013.8
20260507140031 12 78 11.3 25.7 0.00 0.30 0.13 67 1013.6
20260507135507 12 45 9.7 25.7 0.00 0.38 0.13 68 1013.6
20260507135007 12 54 12.9 20.9 0.00 0.41 0.13 68 1013.5
20260507134512 12 352 12.9 20.9 0.00 0.41 0.13 70 1013.5
20260507134007 12 104 6.4 19.3 0.00 0.41 0.13 74 1013.5
20260507133504 12 57 11.3 20.9 0.00 0.41 0.13 73 1013.4
20260507133017 12 75 11.3 20.9 0.00 0.41 0.13 76 1013.5
20260507132508 12 74 11.3 20.9 0.00 0.41 0.13 1013.5
20260507132003 12 49 11.3 25.7 0.00 0.41 0.13 76 1013.5
20260507131527 12 46 12.9 25.7 0.00 0.41 0.13 76 1013.4
20260507131010 12 40 12.9 22.5 0.00 0.41 0.13 77 1013.3
20260507130503 12 50 9.7 22.5 0.00 0.41 0.13 77 1013.3
20260507130018 12 79 9.7 24.1 0.00 0.43 0.13 76 1013.2
20260507125512 12 43 11.3 24.1 0.00 0.43 0.13 77 1013.2
20260507125004 12 40 9.7 20.9 0.00 0.43 0.13 78 1013.2
20260507124522 12 74 9.7 16.1 0.00 0.46 0.13 80 1013.2
20260507124003 12 57 8.0 12.9 0.00 0.46 0.13 80 1013.4
20260507123507 12 53 4.8 17.7 0.00 0.46 0.13 79 1013.4
20260507123026 12 141 9.7 17.7 0.00 0.46 0.13 79 1013.3
20260507122503 12 59 8.0 19.3 0.00 0.48 0.13 80 1013.2
20260507122004 12 56 6.4 19.3 0.00 0.48 0.13 79 1013.0
20260507121521 12 55 12.9 17.7 0.00 0.48 0.13 79 1013.0
20260507121004 12 177 9.7 16.1 0.00 0.48 0.13 80 1013.0
20260507120509 12 67 6.4 16.1 0.00 0.48 0.13 80 1012.9
20260507120029 12 61 6.4 14.5 0.00 0.48 0.13 81 1013.0
20260507115504 12 140 8.0 19.3 0.00 0.48 0.13 80 1012.6
20260507115007 12 77 12.9 19.3 0.00 0.48 0.13 80 1012.5
20260507114525 12 51 8.0 19.3 0.00 0.48 0.13 81 1012.7
20260507114004 12 41 9.7 16.1 0.00 0.48 0.13 82 1012.7
20260507113508 12 49 6.4 14.5 0.00 0.51 0.13 82 1012.7
20260507113055 12 44 6.4 12.9 0.00 0.51 0.13 82 1012.6
20260507112506 11 57 6.4 19.3 0.00 0.51 0.13 81 1012.5
20260507112008 11 39 9.7 19.3 0.00 0.51 0.13 81 1012.5
20260507111527 11 53 8.0 20.9 0.00 0.51 0.13 81 1012.1
20260507111004 11 48 11.3 20.9 0.00 0.51 0.13 81 1012.0
20260507110506 11 42 6.4 17.7 0.00 0.51 0.13 82 1012.3
20260507110029 11 56 8.0 17.7 0.00 0.51 0.13 82 1012.3
20260507105504 11 79 8.0 19.3 0.00 0.51 0.13 82 1012.3
20260507105007 11 67 11.3 20.9 0.00 0.51 0.13 81 1012.6
20260507104527 11 44 8.0 20.9 0.00 0.51 0.13 82 1012.4
20260507104006 11 66 9.7 20.9 0.00 0.51 0.13 83 1012.4
20260507103510 11 26 9.7 20.9 0.00 0.51 0.13 84 1012.3
20260507103023 11 17 9.7 17.7 0.00 0.51 0.13 84 1012.3
20260507102505 11 45 8.0 20.9 0.00 0.51 0.13 85 1012.2
20260507102009 11 99 11.3 20.9 0.00 0.51 0.13 85 1011.8
20260507101527 11 27 4.8 14.5 0.00 0.51 0.13 86 1012.2
20260507101007 11 57 8.0 16.1 0.00 0.51 0.13 85 1012.0
20260507100507 11 55 8.0 16.1 0.00 0.51 0.13 85 1012.1
20260507100013 11 102 9.7 14.5 0.00 0.51 0.13 85 1012.0
20260507095506 11 74 8.0 12.9 0.00 0.51 0.13 85 1011.9
20260507095008 11 114 6.4 14.5 0.00 0.51 0.13 85 1011.9
20260507094507 11 91 6.4 14.5 0.00 0.51 0.13 85 1012.2
20260507094006 11 53 8.0 14.5 0.00 0.51 0.13 85 1012.4
20260507093507 11 78 6.4 14.5 0.00 0.51 0.13 85 1012.2
20260507093013 11 34 8.0 14.5 0.00 0.51 0.13 85 1012.2
20260507092511 11 91 4.8 9.7 0.00 0.51 0.13 86 1012.2
20260507092011 11 67 6.4 14.5 0.00 0.51 0.13 86 1012.2
20260507091513 11 31 6.4 14.5 0.00 0.51 0.13 86 1012.0
20260507091008 11 94 6.4 16.1 0.00 0.51 0.13 87 1012.1
20260507090512 11 63 8.0 16.1 0.00 0.51 0.13 87 1012.0
20260507090012 11 91 8.0 19.3 0.00 0.51 0.13 87 1011.9
20260507085508 11 53 11.3 19.3 0.00 0.51 0.13 87 1011.7
20260507085009 11 48 9.7 17.7 0.00 0.51 0.13 88 1011.8
20260507084530 11 44 6.4 16.1 0.00 0.51 0.13 89 1011.9
20260507084010 11 53 6.4 17.7 0.00 0.51 0.13 88 1011.6
20260507083511 11 73 9.7 17.7 0.00 0.51 0.13 89 1011.4
20260507083021 12 17 9.7 17.7 0.00 0.51 0.13 89 1011.8
20260507082509 12 63 8.0 14.5 0.00 0.51 0.13 90 1011.8
20260507082011 12 70 8.0 12.9 0.03 0.51 0.13 90 1011.7
20260507081514 12 26 4.8 17.7 0.03 0.51 0.13 89 1011.8
20260507081012 12 35 6.4 17.7 0.03 0.51 0.13 89 1011.9
20260507080507 12 58 8.0 14.5 0.03 0.51 0.13 89 1012.0
20260507080016 12 90 9.7 14.5 0.03 0.51 0.13 89 1011.9
20260507075508 12 31 8.0 20.9 0.03 0.51 0.13 89 1011.8
20260507075015 12 76 9.7 20.9 0.03 0.51 0.13 88 1011.5
20260507074516 12 76 6.4 19.3 0.03 0.51 0.13 89 1011.4
20260507074008 12 58 9.7 19.3 0.03 0.51 0.13 89 1011.3
20260507073508 12 118 11.3 22.5 0.03 0.51 0.13 89 1011.3
20260507073024 12 61 16.1 24.1 0.03 0.51 0.13 89 1011.2
20260507072512 12 49 16.1 30.6 0.03 0.51 0.13 89 1011.2
20260507072003 12 38 17.7 30.6 0.00 0.48 0.10 89 1010.9
20260507071520 12 65 11.3 22.5 0.00 0.48 0.10 90 1010.9
20260507071004 13 46 9.7 22.5 0.00 0.48 0.10 90 1010.8
20260507070504 13 52 9.7 17.7 0.03 0.48 0.10 90 1011.2
20260507070023 13 57 9.7 20.9 0.03 0.48 0.10 90 1011.2
20260507065502 13 83 12.9 24.1 0.03 0.48 0.10 91 1011.1
20260507065006 13 94 12.9 24.1 0.03 0.48 0.10 91 1011.0
20260507064522 13 52 14.5 22.5 0.03 0.48 0.10 91 1011.1
20260507064003 13 37 12.9 19.3 0.03 0.48 0.10 92 1011.1
20260507063506 13 46 9.7 24.1 0.03 0.48 0.10 92 1011.1
20260507063023 13 73 12.9 24.1 0.03 0.48 0.10 92 1011.1
20260507062503 13 72 8.0 19.3 0.03 0.48 0.10 92 1011.1
20260507062006 13 14 6.4 24.1 0.03 0.48 0.10 92 1011.5
20260507061530 13 319 4.8 24.1 0.03 0.48 0.10 92 1011.4
20260507061005 14 59 14.5 24.1 0.05 0.48 0.10 92 1011.2
20260507060506 14 28 9.7 17.7 0.03 0.46 0.08 92 1011.4
20260507060033 14 26 12.9 17.7 0.03 0.46 0.08 92 1011.2
20260507055503 14 360 12.9 17.7 0.03 0.46 0.08 91 1010.8
20260507055007 14 26 12.9 17.7 0.03 0.46 0.08 91 1010.5
20260507054535 14 45 6.4 14.5 0.05 0.46 0.08 91 1009.9
20260507054007 14 109 6.4 17.7 0.05 0.46 0.08 91 1009.7
20260507053507 14 104 11.3 17.7 0.05 0.46 0.08 92 1009.6
20260507053023 15 51 9.7 17.7 0.05 0.46 0.08 92 1009.9
20260507052502 15 115 9.7 22.5 0.05 0.46 0.08 92 1009.6
20260507052007 15 75 11.3 22.5 0.08 0.46 0.08 91 1009.8
20260507051524 15 95 12.9 20.9 0.08 0.46 0.08 91 1010.6
20260507051008 15 123 11.3 19.3 0.05 0.43 0.05 91 1010.8
20260507050505 16 108 12.9 17.7 0.05 0.43 0.05 91 1011.1
20260507050049 16 44 9.7 17.7 0.05 0.43 0.05 91 1011.1
20260507045506 16 31 11.3 14.5 0.08 0.43 0.05 91 1011.2
20260507045007 16 42 6.4 9.7 0.10 0.43 0.05 91 1011.2
20260507044531 17 28 3.2 16.1 0.08 0.41 0.03 92 1011.2
20260507044007 17 352 6.4 16.1 0.08 0.41 0.03 92 1011.0
20260507043507 17 24 6.4 12.9 0.08 0.41 0.03 92 1010.8
20260507043009 17 22 6.4 12.9 0.08 0.41 0.03 91 1010.6
20260507042509 17 53 6.4 12.9 0.08 0.41 0.03 91 1010.4
20260507042007 17 20 4.8 11.3 0.05 0.38 0.00 91 1010.5
20260507041508 17 32 3.2 3.2 0.05 0.38 0.00 91 1010.7
20260507041007 17 5 1.6 3.2 0.05 0.38 0.00 90 1010.7
20260507040509 17 360 1.6 3.2 0.05 0.38 0.00 89 1010.5
20260507040015 17 234 0.0 3.2 0.05 0.38 0.00 89 1010.5
20260507035505 17 205 0.0 3.2 0.03 0.36 0.36 89 1010.7
20260507035007 17 205 0.0 3.2 0.00 0.33 0.33 88 1010.6
20260507034516 17 204 0.0 3.2 0.00 0.33 0.33 87 1010.7
20260507034013 17 339 0.0 3.2 0.00 0.33 0.33 87 1010.8
20260507033507 17 339 0.0 3.2 0.00 0.33 0.33 87 1010.5
20260507033019 17 340 0.0 3.2 0.00 0.33 0.33 87 1010.2
20260507032511 18 339 0.0 3.2 0.00 0.33 0.33 87 1010.1
20260507032011 18 339 1.6 3.2 0.00 0.33 0.33 86 1010.1
20260507031514 18 339 0.0 3.2 0.00 0.33 0.33 86 1010.0
20260507031011 18 219 0.0 3.2 0.00 0.33 0.33 86 1010.1
20260507030512 18 219 0.0 3.2 0.00 0.33 0.33 86 1010.2
20260507030013 18 217 0.0 3.2 0.00 0.33 0.33 86 1010.4
20260507025509 18 307 0.0 3.2 0.00 0.33 0.33 86 1010.5
20260507025017 18 307 0.0 3.2 0.00 0.33 0.33 86 1010.5
20260507024518 18 307 0.0 3.2 0.00 0.33 0.33 85 1010.2
20260507024012 18 309 0.0 3.2 0.00 0.33 0.33 85 1010.0
20260507023511 18 279 1.6 4.8 0.00 0.33 0.33 86 1010.1
20260507023016 18 290 1.6 4.8 0.00 0.33 0.33 86 1010.1
20260507022509 18 282 1.6 3.2 0.00 0.33 0.33 86 1009.8
20260507022012 18 297 1.6 3.2 0.00 0.33 0.33 86 1009.7
20260507021536 18 261 0.0 3.2 0.00 0.33 0.33 86 1009.4
20260507021011 18 230 0.0 3.2 0.00 0.33 0.33 85 1009.4
20260507020504 18 291 0.0 6.4 0.00 0.33 0.33 85 1009.4
20260507020023 18 270 1.6 6.4 0.00 0.33 0.33 85 1009.4
20260507015509 18 236 0.0 3.2 0.00 0.33 0.33 85 1009.6
20260507015007 18 252 0.0 3.2 0.00 0.33 0.33 84 1009.8
20260507014523 18 228 0.0 4.8 0.00 0.33 0.33 84 1009.8
20260507014015 18 267 1.6 4.8 0.00 0.33 0.33 83 1009.7
20260507013503 18 275 0.0 6.4 0.00 0.33 0.33 83 1009.9
20260507013023 18 290 1.6 6.4 0.00 0.33 0.33 83 1009.8
20260507012509 18 265 1.6 6.4 0.00 0.33 0.33 83 1009.8
20260507012009 18 263 3.2 8.0 0.00 0.33 0.33 83 1009.8
20260507011530 18 200 3.2 9.7 0.00 0.33 0.33 83 1009.8
20260507011007 18 261 3.2 11.3 0.00 0.33 0.33 82 1009.8
20260507010508 18 254 4.8 11.3 0.00 0.33 0.33 83 1009.9
20260507010037 18 215 4.8 11.3 0.00 0.33 0.33 83 1009.9
20260507005511 18 288 4.8 11.3 0.00 0.33 0.33 83 1009.8
20260507005012 18 267 4.8 11.3 0.00 0.33 0.33 82 1009.6
20260507004526 18 268 3.2 9.7 0.00 0.33 0.33 82 1009.6
20260507004011 18 265 3.2 8.0 0.00 0.33 0.33 82 1009.7
20260507003508 18 207 3.2 11.3 0.00 0.33 0.33 82 1009.7
20260507003025 19 240 3.2 11.3 0.00 0.33 0.33 81 1009.5
20260507002507 19 267 3.2 11.3 0.00 0.33 0.33 81 1009.4
20260507002006 19 207 4.8 11.3 0.00 0.33 0.33 80 1009.4
20260507001528 19 211 3.2 11.3 0.00 0.33 0.33 80 1009.5
20260507001008 19 227 4.8 17.7 0.00 0.33 0.33 80 1009.5
20260507000512 19 250 4.8 17.7 0.00 0.33 0.33 79 1009.5
20260507000032 20 233 4.8 12.9 0.00 0.33 0.33 79 1009.6
20260506235510 20 267 6.4 14.5 0.00 0.33 0.33 79 1009.5
20260506235011 20 286 4.8 14.5 0.00 0.33 0.33 79 1009.6
20260506234526 20 271 3.2 19.3 0.00 0.33 0.33 79 1009.6
20260506234012 20 291 8.0 19.3 0.00 0.33 0.33 78 1009.6
20260506233508 20 271 3.2 12.9 0.00 0.33 0.33 78 1009.5
20260506233028 20 276 6.4 17.7 0.00 0.33 0.33 78 1009.4
20260506232506 20 267 6.4 17.7 0.00 0.33 0.33 77 1009.1
20260506232011 20 246 3.2 16.1 0.00 0.33 0.33 78 1009.0
20260506231528 20 263 6.4 16.1 0.00 0.33 0.33 77 1009.0
20260506231007 20 292 3.2 12.9 0.00 0.33 0.33 77 1009.0
20260506230506 20 236 3.2 12.9 0.00 0.33 0.33 77 1009.2
20260506230032 20 240 6.4 16.1 0.00 0.33 0.33 77 1009.2
20260506225511 20 248 4.8 16.1 0.00 0.33 0.33 77 1009.3
20260506225008 20 277 6.4 14.5 0.00 0.33 0.33 77 1009.2
20260506224528 20 278 6.4 17.7 0.00 0.33 0.33 76 1009.2
20260506224007 21 271 4.8 17.7 0.00 0.33 0.33 76 1009.1
20260506223515 20 256 4.8 17.7 0.00 0.33 0.33 76 1009.2
20260506223026 21 288 6.4 17.7 0.00 0.33 0.33 75 1009.2
20260506222509 21 259 8.0 17.7 0.00 0.33 0.33 75 1009.2
20260506222008 21 277 6.4 16.1 0.00 0.33 0.33 75 1009.3
20260506221514 21 246 4.8 16.1 0.00 0.33 0.33 74 1009.3
20260506221007 21 279 6.4 17.7 0.00 0.33 0.33 74 1009.3
20260506220504 21 244 8.0 17.7 0.00 0.33 0.33 74 1009.2
20260506220022 21 247 4.8 20.9 0.00 0.33 0.33 74 1009.2
20260506215509 21 227 9.7 22.5 0.00 0.33 0.33 73 1009.1
20260506215007 21 219 9.7 29.0 0.00 0.33 0.33 72 1009.1
20260506214515 21 196 6.4 29.0 0.00 0.33 0.33 73 1009.0
20260506214008 21 281 14.5 29.0 0.00 0.33 0.33 72 1008.9
20260506213508 21 286 6.4 29.0 0.00 0.33 0.33 73 1009.0
20260506213027 21 231 11.3 19.3 0.00 0.33 0.33 72 1009.1
20260506212508 21 240 9.7 19.3 0.00 0.33 0.33 72 1009.4
20260506212005 21 248 8.0 19.3 0.00 0.33 0.33 73 1009.4
20260506211524 21 279 8.0 24.1 0.00 0.33 0.33 73 1009.1
20260506211003 21 267 9.7 25.7 0.00 0.33 0.33 73 1009.2
20260506210505 21 263 14.5 25.7 0.00 0.33 0.33 74 1009.2
20260506210025 21 250 11.3 22.5 0.00 0.33 0.33 74 1009.2
20260506205504 21 281 9.7 20.9 0.00 0.33 0.33 74 1009.1
20260506205008 21 259 8.0 22.5 0.00 0.33 0.33 74 1009.1
20260506204519 20 167 11.3 20.9 0.00 0.33 0.33 74 1009.1
20260506204002 20 265 8.0 24.1 0.00 0.33 0.33 74 1009.0
20260506203503 20 251 11.3 24.1 0.00 0.33 0.33 74 1009.1
20260506203028 20 266 11.3 24.1 0.00 0.33 0.33 74 1009.2
20260506202504 20 159 8.0 22.5 0.00 0.33 0.33 75 1009.1
20260506202007 20 258 9.7 25.7 0.00 0.33 0.33 76 1009.1
20260506201526 20 237 8.0 25.7 0.00 0.33 0.33 75 1009.1
20260506201005 20 121 12.9 22.5 0.00 0.33 0.33 75 1009.3
20260506200506 20 285 8.0 20.9 0.00 0.33 0.33 76 1009.3
20260506200024 20 227 6.4 19.3 0.00 0.33 0.33 76 1009.1
20260506195504 20 210 8.0 19.3 0.00 0.33 0.33 77 1009.4
20260506195010 20 309 6.4 17.7 0.00 0.33 0.33 77 1009.3
20260506194525 19 239 4.8 16.1 0.00 0.33 0.33 78 1009.1
20260506194006 19 226 6.4 17.7 0.00 0.33 0.33 78 1009.3
20260506193507 19 255 8.0 17.7 0.00 0.33 0.33 79 1009.2
20260506193025 18 221 6.4 14.5 0.00 0.33 0.33 79 1009.5
20260506192504 18 233 6.4 19.3 0.00 0.33 0.33 79 1009.3
20260506192008 18 226 9.7 27.4 0.00 0.33 0.33 79 1009.4
20260506191527 18 280 9.7 27.4 0.00 0.33 0.33 79 1009.8
20260506191006 18 254 6.4 14.5 0.00 0.33 0.33 81 1009.7
20260506190508 18 225 6.4 14.5 0.00 0.33 0.33 81 1009.8
20260506190026 18 301 4.8 16.1 0.00 0.33 0.33 81 1009.8
20260506185504 18 211 8.0 19.3 0.00 0.33 0.33 81 1009.8
20260506185007 18 248 6.4 19.3 0.00 0.33 0.33 81 1009.9
20260506184507 18 246 9.7 19.3 0.00 0.33 0.33 81 1009.9
20260506184007 18 286 3.2 20.9 0.00 0.33 0.33 82 1010.0
20260506183510 18 329 6.4 20.9 0.00 0.33 0.33 82 1010.2
20260506183006 18 287 6.4 19.3 0.00 0.33 0.33 81 1010.1
20260506182504 18 234 8.0 25.7 0.00 0.33 0.33 82 1010.1
20260506182011 18 250 12.9 25.7 0.00 0.33 0.33 81 1010.1
20260506181513 18 261 4.8 24.1 0.00 0.33 0.33 82 1010.1
20260506181007 18 273 12.9 24.1 0.00 0.33 0.33 82 1010.1
20260506180517 18 227 12.9 20.9 0.00 0.33 0.33 82 1010.1
20260506180014 18 218 11.3 19.3 0.00 0.33 0.33 82 1010.2
20260506175506 18 288 8.0 17.7 0.00 0.33 0.33 82 1010.1
20260506175008 18 232 8.0 19.3 0.00 0.33 0.33 82 1010.2